[[{"header":{"parameterUnit":"m.s-1","parameterCategory":1,"la1":30.2991,"la2":30.254,"lo1":-89.0895,"lo2":-89.0444,"dy":0.0017,"dx":0.0017,"nx":28,"ny":28,"refTime":"2023-06-25T21:00:00:Z","depth":0,"parameterNumber":2,"parameterNumberName":"U-component_of_WINDS"},"data":[0,0,0,0,0,0,0,0,0,0,0,0,0,0,0,0,0,0,0,0,0,0,0,0,0,0,0,0,0,0,0,0,0,0,0,0,0,0,0,0,0,0,0,0,0,0,0,0,0,0,0,0,0,0,0,0,0,0,4.5481,4.5482,0,4.5577,4.5578,4.5579,4.5486,4.5482,4.5479,4.5475,4.5576,4.5582,4.5588,0,0,0,0,0,0,0,0,0,0,0,0,0,4.5218,4.5224,4.5481,4.5482,4.5483,4.5577,4.5578,4.5579,4.5487,4.5482,4.5478,4.5473,4.5574,4.5581,4.5588,0,0,0,0,0,0,0,0,0,0,0,0,0,4.5325,4.5226,4.5481,4.5448,4.5446,4.5576,4.5578,4.558,4.5488,4.5482,4.5476,4.5471,4.5571,4.558,4.5589,4.5757,0,0,4.5618,4.5622,0,0,0,0,0,0,0,0,4.5319,4.5335,4.5452,4.5451,4.5449,4.5514,4.5522,4.5639,4.5489,4.5472,4.5475,4.5469,4.556,4.557,4.56,4.5762,4.5766,4.5618,4.5624,4.5628,4.563,0,0,0,0,0,0,0,4.5312,4.533,4.5519,4.5454,4.5452,4.5429,4.5438,4.5544,4.5546,4.5473,4.5466,4.5479,4.5558,4.5591,4.5602,4.5768,4.5618,4.5626,4.5632,4.5636,4.6071,4.6076,0,0,0,0,0,0,4.5308,4.5325,4.5516,4.5522,4.5369,4.5438,4.5449,4.5499,4.5544,4.5546,4.5484,4.5474,4.5578,4.5591,4.5605,4.5803,4.5628,4.5636,4.5642,4.6065,4.6072,4.6079,0,0,0,0,0,0,4.5303,4.5326,4.5512,4.5422,4.5444,4.5449,4.5506,4.5503,4.5536,4.5552,4.5552,4.5517,4.5574,4.5592,4.5719,4.5805,4.5641,4.5649,4.6058,4.6067,4.6075,4.6201,0,0,0,0,0,0,4.5296,4.5325,4.5388,4.5424,4.5449,4.5625,4.5511,4.5509,4.5552,4.5541,4.5584,4.5586,4.5571,4.5706,4.5729,4.5815,4.5656,4.605,4.6062,4.6072,4.6189,4.6213,4.6234,0,0,0,0,0,4.5287,4.5421,4.5392,4.5415,4.5528,4.563,4.5644,4.5624,4.556,4.5623,4.5634,4.5584,4.5792,4.572,4.5745,4.5835,4.6044,4.6058,4.6072,4.6179,4.6209,4.6233,0,0,0,0,0,0,4.5396,4.5425,4.5393,4.5543,4.5585,4.5614,4.5694,4.5656,4.5718,4.5705,4.5678,4.5689,4.5824,4.5842,4.5761,4.5999,4.5908,4.5927,4.5981,4.6009,4.6031,4.6023,4.5664,0,0,0,0,0,4.5438,4.5517,4.5538,4.5668,4.5691,4.5689,4.5733,4.5714,4.5756,4.5774,4.5793,4.5837,4.5912,4.5962,4.6032,4.6192,4.6199,4.6266,4.6288,4.6306,4.6323,4.6407,4.6437,4.6123,4.6123,4.6123,0,0,4.5524,4.555,4.5602,4.5691,4.5721,4.5804,4.5705,4.5798,4.5859,4.5788,4.5909,4.5925,4.5972,4.6116,4.6181,4.6136,4.6411,4.6324,4.6338,4.6345,4.6424,4.6454,4.648,4.6132,4.6131,4.6129,0,0,4.5724,4.5752,4.5862,4.5895,4.5941,4.5939,4.5966,4.6001,4.6008,4.6129,4.6077,4.6151,4.6281,4.6316,4.6351,4.6563,4.652,4.6587,4.6703,4.6786,4.681,4.6832,4.6906,4.6933,4.6604,4.6604,4.6604,0,4.5826,4.5949,4.5924,4.602,4.6061,4.5999,4.6111,4.6143,4.6211,4.624,4.6189,4.6349,4.6377,4.6528,4.6579,4.661,4.6639,4.6581,4.6809,4.683,4.685,4.692,4.6949,4.6612,4.6611,4.661,4.6609,0,4.6071,4.6157,4.6241,4.6306,4.6356,4.646,4.6451,4.6504,4.6481,4.6484,4.6608,4.6639,4.6713,4.6747,4.6726,4.6895,4.6865,4.6812,4.672,4.6888,4.6954,4.6981,4.6623,4.662,4.6618,4.6616,0,0,4.6343,4.6392,4.6423,4.6451,4.6498,4.6564,4.6665,4.6736,4.6782,4.6831,4.6914,4.7025,4.6975,4.7015,4.6997,4.707,4.7234,4.7007,4.7008,4.7047,4.742,4.7459,4.7491,4.7206,4.7211,4.7215,4.7416,0,4.6542,4.6716,4.6696,4.6862,4.694,4.6883,4.697,4.7009,4.7015,4.7082,4.7089,4.7167,4.7097,4.712,4.719,4.72,4.7309,4.7185,4.7283,4.7286,4.7271,4.7525,4.7567,4.7754,4.7442,4.7446,4.7449,0,4.6799,4.6855,4.7028,4.7061,4.7093,4.7172,4.7235,4.7301,4.7343,4.7342,4.7386,4.7355,4.7456,4.7363,4.7501,4.7417,4.7456,4.7467,4.7474,4.7481,4.7377,4.7538,4.7814,4.7841,4.749,4.7486,4.7483,0,4.6977,4.7097,4.7215,4.7241,4.7283,4.734,4.736,4.7396,4.744,4.7496,4.7524,4.7592,4.7628,4.7681,4.7669,4.7603,4.781,4.7716,4.7811,4.7812,4.7856,4.7853,4.8141,4.7885,4.7884,4.7884,4.7883,0,4.7201,4.7309,4.7295,4.7368,4.7487,4.7464,4.7582,4.7595,4.7628,4.7702,4.7658,4.7728,4.7709,4.7779,4.7771,4.7885,4.7903,4.7905,4.7901,4.7908,4.7907,4.7931,4.7917,4.7891,4.789,4.7888,4.7887,0,4.742,4.7415,4.754,4.7569,4.7579,4.7665,4.769,4.7759,4.7761,4.7855,4.7876,4.788,4.796,4.7953,4.8044,4.8038,4.8179,4.8161,4.8165,4.816,4.8255,4.8245,4.8567,4.8607,4.8327,4.8329,4.8332,0,4.7563,4.7644,4.7682,4.7727,4.7751,4.7826,4.787,4.7851,4.7899,4.7952,4.8014,4.809,4.8149,4.8279,4.829,4.8359,4.8341,4.8449,4.8351,4.8355,4.834,4.8335,4.8342,4.8468,4.8471,4.8473,4.8475,0,4.7816,4.7809,4.7874,4.7938,4.7992,4.8042,4.8087,4.8127,4.8112,4.8168,4.8249,4.8295,4.8386,4.8461,4.8526,4.8547,4.8509,4.8506,4.8531,4.8538,4.8536,4.8537,4.8215,4.8499,4.8496,4.8495,4.8493,4.8492,4.8,4.8068,4.8105,4.8178,4.821,4.8253,4.8318,4.8328,4.8395,4.8466,4.8451,4.8542,4.8581,4.8664,4.8691,4.8762,4.8723,4.876,4.8769,4.8778,4.8788,4.8527,4.8774,4.8773,4.8773,4.8772,4.8771,0,4.8249,4.8269,4.8337,4.8401,4.8458,4.8417,4.8464,4.8515,4.8595,4.8634,4.8693,4.8785,4.8858,4.8874,4.8944,4.8997,4.8981,4.9015,4.901,4.9015,4.882,4.879,4.9027,4.9027,4.9027,4.9027,4.9027,4.9027,4.8385,4.8498,4.8496,4.8625,4.8644,4.8731,4.8762,4.8801,4.8832,4.8936,4.8996,4.9006,4.9036,4.9107,4.9172,4.9174,4.9201,4.9243,4.9239,4.9055,4.903,4.9005,4.8977,4.9249,4.925,4.9428,4.943,4.9431]},{"header":{"parameterUnit":"m.s-1","parameterCategory":1,"la1":30.2991,"la2":30.254,"lo1":-89.0895,"lo2":-89.0444,"dy":0.0017,"dx":0.0017,"nx":28,"ny":28,"refTime":"2023-06-25T21:00:00:Z","depth":0,"parameterNumber":3,"parameterNumberName":"V-component_of_WINDS"},"data":[0,0,0,0,0,0,0,0,0,0,0,0,0,0,0,0,0,0,0,0,0,0,0,0,0,0,0,0,0,0,0,0,0,0,0,0,0,0,0,0,0,0,0,0,0,0,0,0,0,0,0,0,0,0,0,0,0,0,2.1084,2.1085,0,2.1211,2.1213,2.1214,2.1217,2.1215,2.1213,2.1212,2.1344,2.1349,2.1354,0,0,0,0,0,0,0,0,0,0,0,0,0,2.0844,2.0849,2.1084,2.1086,2.1087,2.1211,2.1213,2.1214,2.1217,2.1215,2.1213,2.1211,2.1343,2.1348,2.1354,0,0,0,0,0,0,0,0,0,0,0,0,0,2.0958,2.085,2.1084,2.1103,2.1106,2.1211,2.1213,2.1215,2.1217,2.1215,2.1212,2.121,2.1341,2.1348,2.1355,2.1449,0,0,2.1378,2.1382,0,0,0,0,0,0,0,0,2.0951,2.0966,2.1099,2.1102,2.1106,2.1196,2.1177,2.1294,2.1218,2.1175,2.1212,2.1209,2.1297,2.1308,2.1337,2.1456,2.1461,2.1379,2.1383,2.1387,2.1389,0,0,0,0,0,0,0,2.0943,2.0961,2.1134,2.1101,2.1105,2.1106,2.1119,2.1199,2.1248,2.1179,2.1179,2.1194,2.1298,2.133,2.134,2.1463,2.1379,2.1385,2.139,2.1393,2.1665,2.1668,0,0,0,0,0,0,2.0931,2.0954,2.113,2.1138,2.1021,2.1112,2.1127,2.1169,2.1247,2.1257,2.1196,2.1194,2.1318,2.1331,2.1345,2.146,2.1387,2.1394,2.1398,2.1662,2.1666,2.1668,0,0,0,0,0,0,2.0926,2.0947,2.1125,2.1046,2.1069,2.1119,2.1166,2.1173,2.1204,2.126,2.1269,2.1219,2.1317,2.1334,2.1423,2.1465,2.1397,2.1404,2.1659,2.1663,2.1667,2.1691,0,0,0,0,0,0,2.0919,2.0945,2.0981,2.1047,2.1073,2.1201,2.1168,2.1177,2.1217,2.1215,2.1284,2.1293,2.1316,2.1412,2.1431,2.1474,2.141,2.1656,2.1661,2.1666,2.1687,2.1696,2.1703,0,0,0,0,0,2.0911,2.0984,2.0983,2.1004,2.112,2.1204,2.1219,2.1243,2.122,2.1257,2.1293,2.1291,2.1457,2.1421,2.1442,2.1488,2.1653,2.1659,2.1665,2.1683,2.1694,2.1703,0,0,0,0,0,0,2.0922,2.0993,2.0993,2.1089,2.114,2.1204,2.1251,2.1254,2.1313,2.1309,2.1337,2.1352,2.1441,2.1473,2.1432,2.1583,2.1552,2.1563,2.1559,2.1569,2.1577,2.1568,2.1416,0,0,0,0,0,2.0936,2.0998,2.1056,2.1136,2.1161,2.1202,2.1239,2.1253,2.1308,2.133,2.1372,2.1425,2.1489,2.1531,2.1593,2.1691,2.1706,2.1733,2.1741,2.1747,2.1757,2.1811,2.1823,2.1689,2.1689,2.1688,0,0,2.0965,2.1011,2.1049,2.1139,2.118,2.1244,2.122,2.1289,2.1337,2.134,2.1427,2.1459,2.1521,2.1614,2.1658,2.1644,2.1797,2.1755,2.176,2.1766,2.1818,2.1831,2.1842,2.1693,2.1692,2.1691,0,0,2.1051,2.1092,2.1162,2.1204,2.1266,2.1292,2.1309,2.1372,2.1394,2.1481,2.1485,2.1542,2.1652,2.1695,2.1731,2.1832,2.1832,2.1851,2.1894,2.1946,2.1956,2.1966,2.2002,2.2015,2.186,2.186,2.186,0,2.108,2.1176,2.1199,2.1267,2.1307,2.1312,2.1383,2.1423,2.1502,2.153,2.1513,2.165,2.1691,2.1795,2.182,2.1849,2.1869,2.1844,2.1953,2.1963,2.1972,2.2007,2.202,2.1862,2.1862,2.1861,2.1861,0,2.1208,2.1274,2.1324,2.1399,2.1444,2.1514,2.1548,2.1591,2.16,2.1628,2.1716,2.1766,2.1838,2.1863,2.1874,2.1969,2.1958,2.1947,2.1917,2.1986,2.2019,2.2033,2.1865,2.1864,2.1863,2.1863,0,0,2.1307,2.1393,2.1411,2.1445,2.1513,2.1565,2.1635,2.1704,2.174,2.1794,2.1854,2.1946,2.1935,2.1976,2.1992,2.2037,2.2114,2.202,2.2022,2.2036,2.2221,2.223,2.2245,2.2114,2.2116,2.2119,2.2216,0,2.14,2.1524,2.1546,2.1654,2.1715,2.172,2.1781,2.1829,2.1857,2.1913,2.1944,2.2009,2.199,2.2015,2.206,2.2095,2.2151,2.2088,2.217,2.2173,2.2155,2.2262,2.2272,2.2362,2.2229,2.2231,2.2233,0,2.1526,2.1583,2.1697,2.1756,2.1783,2.1837,2.1902,2.1955,2.201,2.2027,2.2072,2.2082,2.2154,2.212,2.222,2.2177,2.2211,2.2233,2.2237,2.2247,2.2208,2.2275,2.2391,2.2405,2.2254,2.2252,2.225,0,2.1587,2.1692,2.1773,2.1802,2.1873,2.1911,2.1942,2.1995,2.2035,2.2091,2.2118,2.2182,2.2218,2.2268,2.2294,2.2267,2.2393,2.2361,2.2409,2.2409,2.2437,2.2435,2.2561,2.2458,2.2458,2.2457,2.2457,0,2.169,2.176,2.1801,2.1852,2.193,2.1954,2.203,2.2061,2.2107,2.2164,2.2172,2.2225,2.2256,2.2314,2.2335,2.2415,2.2431,2.2447,2.2452,2.2447,2.2445,2.2471,2.2466,2.2461,2.246,2.246,2.2459,0,2.1772,2.1802,2.1892,2.1951,2.1967,2.2022,2.2073,2.2122,2.2149,2.222,2.2238,2.2281,2.2348,2.238,2.2464,2.2478,2.2569,2.257,2.2551,2.2553,2.2599,2.2595,2.2747,2.2768,2.265,2.2652,2.2652,0,2.1836,2.1889,2.1954,2.1992,2.2024,2.2085,2.2125,2.2151,2.2193,2.2258,2.23,2.2367,2.2423,2.2531,2.257,2.2634,2.2637,2.2685,2.2647,2.2639,2.2638,2.2635,2.264,2.2693,2.2694,2.2695,2.2696,0,2.1946,2.1958,2.2016,2.2079,2.2126,2.2177,2.2227,2.2258,2.2291,2.2338,2.2407,2.245,2.2535,2.2603,2.2669,2.2702,2.2705,2.2707,2.2722,2.2718,2.2705,2.2713,2.257,2.2704,2.2703,2.2703,2.2702,2.2702,2.2022,2.2069,2.2121,2.2185,2.2225,2.2271,2.232,2.2352,2.241,2.2481,2.2492,2.2566,2.2618,2.2708,2.2743,2.2801,2.2789,2.281,2.2816,2.2821,2.2824,2.2694,2.2813,2.2813,2.2812,2.2812,2.2812,0,2.2133,2.2166,2.2224,2.2293,2.2343,2.234,2.2395,2.2437,2.2502,2.255,2.2604,2.2683,2.2748,2.2791,2.2857,2.2895,2.2898,2.2912,2.291,2.2917,2.283,2.2811,2.2908,2.2908,2.2908,2.2908,2.2908,2.2908,2.2196,2.2276,2.2295,2.2394,2.2428,2.2499,2.2531,2.2573,2.2612,2.2699,2.2753,2.278,2.2827,2.2895,2.2955,2.2966,2.299,2.3004,2.3015,2.2933,2.2923,2.2914,2.2896,2.3009,2.3009,2.3097,2.3097,2.3098]}]]